Left ArrowRight Arrow

Hourly Observations for May 22, 2024

Temp ( °F °C ) Dew Point ( °F °C ) Humidity (%) Winds ( mph kmh ) Pressure ( in mb ) Visibility ( mi km ) Precip ( " mm )
12:53 am 00:53 Partly Cloudy 47 8.3 42 5.6 83 83 SE 5 7 29.78 1008 10 16 0.00 0.00
1:53 am 01:53 Clear 45 7.2 41 5 86 86 NE 6 9 29.78 1008 10 16 0.00 0.00
2:53 am 02:53 Clear 45 7.2 41 5 86 86 E 7 11 29.78 1008 10 16 0.00 0.00
3:53 am 03:53 Clear 40 4.4 37 2.8 89 89 SSE 5 7 29.77 1008 10 16 0.00 0.00
4:53 am 04:53 Clear 41 5 37 2.8 86 86 Calm 29.75 1008 10 16 0.00 0.00
5:53 am 05:53 Sunny 40 4.4 37 2.8 89 89 W 7 11 29.75 1008 10 16 0.00 0.00
6:53 am 06:53 Sunny 44 6.7 40 4.4 85 85 SW 8 13 29.75 1007 10 16 0.00 0.00
7:53 am 07:53 Sunny 49 9.4 41 5 74 74 SW 13 20 29.74 1007 10 16 0.00 0.00
8:53 am 08:53 Mostly Cloudy 54 12.2 42 5.6 64 64 W 9 15 29.74 1007 10 16 0.00 0.00
9:53 am 09:53 Cloudy 56 13.3 41 5 57 57 VRB 5 7 29.74 1007 10 16 0.00 0.00
10:53 am 10:53 Partly Cloudy 58 14.4 41 5 53 53 NW 7 11 29.73 1007 10 16 0.00 0.00
11:53 am 11:53 Mostly Cloudy 58 14.4 41 5 53 53 NNW 8 13 29.73 1007 10 16 0.00 0.00
12:53 pm 12:53 Cloudy 58 14.4 41 5 53 53 NE 7 11 29.72 1007 10 16 0.00 0.00
1:53 pm 13:53 Cloudy 61 16.1 40 4.4 46 46 undefined N/A 29.72 1006 10 16 0.00 0.00
2:53 pm 14:53 Cloudy 57 13.9 45 7.2 64 64 NNE 21 33 29.73 1007 10 16 0.00 0.00
3:53 pm 15:53 Mostly Cloudy 58 14.4 45 7.2 62 62 ENE 17 28 29.74 1007 10 16 0.00 0.00
4:53 pm 16:53 Partly Cloudy 58 14.4 44 6.7 60 60 ENE 17 28 29.73 1007 10 16 0.00 0.00
5:53 pm 17:53 Sunny 58 14.4 42 5.6 55 55 ENE 16 26 29.74 1007 10 16 0.00 0.00
6:53 pm 18:53 Mostly Cloudy 56 13.3 43 6.1 62 62 ENE 17 28 29.76 1008 10 16 0.00 0.00
7:53 pm 19:53 Cloudy 53 11.7 45 7.2 74 74 E 8 13 29.78 1008 10 16 0.00 0.00
8:53 pm 20:53 Cloudy with Light Rain 51 10.6 47 8.3 86 86 E 7 11 29.79 1009 7 11 0.01 0.13
9:53 pm 21:53 Cloudy with Light Rain 50 10 47 8.3 89 89 NE 7 11 29.82 1010 10 16 0.02 0.51
10:53 pm 22:53 Cloudy 50 10 47 8.3 89 89 NE 6 9 29.82 1010 10 16 0.01 0.25
11:53 pm 23:53 Cloudy 49 9.4 43 6.1 80 80 NE 13 20 29.82 1010 10 16 0.00 0.00

Powered by Vaisala Xweather